Flag for Aruba Weather past 2 weeks in Oranjestad, Aruba

Now
84 °F

Scattered clouds.


Feels Like: 90 °F
Forecast: 78 / 86 °F
Wind: 24 mph from East

Location: Queen Beatrix Airport - Aruba

Current Time: Jan 28, 2015 at 11:20:32 AM

Latest Report: Jan 28, 2015 at 11:00 AM


Visibility: N/A

Pressure: 29.92 "Hg

Humidity: 66%

Dew point: 72 °F

Location of OranjestadLocation

Historic Weather in Oranjestad — Graph

°F

Oranjestad temperature yesterday

Maximum temperature yesterday: 86 °F (at 11:00 AM)
Minimum temperature yesterday: 79 °F (at 12:00 AM)
Average temperature yesterday: 81 °F

Past Weeks' High & Low Weather Summary

 TemperatureHumidityPressure
High88 °F (Jan 13, 12:00 PM)100% (Jan 15, 10:00 AM)29.98 "Hg (Jan 15, 10:00 AM)
Low77 °F (Jan 19, 4:00 AM)21% (Jan 13, 6:00 PM)29.80 "Hg (Jan 27, 5:00 PM)
Average82 °F75%29.90 "Hg
* Reported Jan 13 10:00 AM — Jan 28 10:00 AM, Oranjestad, Weather by CustomWeather, © 2014

Note: Actual official high and low records may vary slightly from our data, if they occured in-between our weather recording intervals... More about our weather records

Advertising

Oranjestad weather history for previous 24 hours

 ConditionsComfort  
Time TempWeatherWind HumidityBarometerVisibility
10:00 AM
Jan 28
84 °FScattered clouds.20 mph66%29.92 "HgN/A
9:00 AM82 °FScattered clouds.20 mph70%29.92 "HgN/A
8:00 AM81 °FPassing clouds.15 mph74%29.89 "HgN/A
7:00 AM79 °FPassing clouds.15 mph79%29.86 "HgN/A
6:00 AM79 °FPassing clouds.16 mph79%29.86 "HgN/A
5:00 AM79 °FPassing clouds.18 mph79%29.83 "HgN/A
4:00 AM79 °FPassing clouds.14 mph84%29.86 "HgN/A
3:00 AM79 °FPassing clouds.15 mph84%29.86 "HgN/A
2:00 AM79 °FPassing clouds.16 mph84%29.86 "HgN/A
1:00 AM79 °FPassing clouds.15 mph79%29.89 "HgN/A
12:00 AM79 °FPassing clouds.16 mph79%29.89 "HgN/A
11:00 PM
Jan 27
79 °FPassing clouds.18 mph79%29.89 "HgN/A
10:00 PM79 °FPassing clouds.20 mph79%29.89 "HgN/A
9:00 PM81 °FPassing clouds.20 mph79%29.86 "HgN/A
8:00 PM81 °FPassing clouds.18 mph79%29.86 "HgN/A
7:00 PM81 °FPassing clouds.20 mph74%29.83 "HgN/A
6:00 PM82 °FPassing clouds.17 mph74%29.83 "HgN/A
5:00 PM84 °FPassing clouds.18 mph70%29.80 "HgN/A
4:00 PM86 °FPassing clouds.20 mph62%29.83 "HgN/A
3:00 PM86 °FPassing clouds.17 mph62%29.83 "HgN/A
2:00 PM86 °FPassing clouds.16 mph66%29.86 "HgN/A
1:00 PM84 °FWarm.16 mph70%29.89 "HgN/A
12:00 PM84 °FPartly sunny.15 mph70%29.92 "HgN/A
11:00 AM86 °FScattered clouds.21 mph62%29.92 "HgN/A
Weather by CustomWeather, © 2014

See weather overviewHow to use our weather pages